When you browse on this site, cookies collect data to enhance your experience and personalize the content and advertising you see.
Visit our Privacy Policy to learn more. By continuing to use the site, you agree to this use of cookies and data.
  • In Deutschland
  • Länderverzeichnis
  • Für 7 Tage
  • Wassertemperatur
  • Satellitenkarten
  • Wetterkarte
  • Widgets
  • user-avatar
    Anmelden

    Stündliche Wetter Megri

    Heute, 15 Juli, Montag

    Zeit Temperatur Niederschläge Wind Luftdruck Luftfeuchtigkeit
    00:00 +15°C° 0 mm 4 m/S 620 mmHg 80%
    01:00 +16°C° 0 mm 3 m/S 619 mmHg 81%
    02:00 +16°C° 0 mm 3 m/S 619 mmHg 82%
    03:00 +16°C° 0 mm 3 m/S 619 mmHg 83%
    04:00 +16°C° 0 mm 3 m/S 619 mmHg 81%
    05:00 +16°C° 0 mm 2 m/S 619 mmHg 79%
    06:00 +17°C° 0 mm 2 m/S 619 mmHg 77%
    07:00 +19°C° 0 mm 2 m/S 620 mmHg 67%
    08:00 +21°C° 0 mm 2 m/S 621 mmHg 56%
    09:00 +24°C° 0 mm 2 m/S 621 mmHg 44%
    10:00 +26°C° 0 mm 2 m/S 622 mmHg 38%
    11:00 +27°C° 0 mm 2 m/S 622 mmHg 33%
    12:00 +29°C° 0 mm 3 m/S 622 mmHg 27%
    13:00 +29°C° 0 mm 3 m/S 622 mmHg 25%
    14:00 +30°C° 0 mm 4 m/S 622 mmHg 22%
    15:00 +32°C° 0 mm 4 m/S 621 mmHg 20%
    16:00 +30°C° 0 mm 4 m/S 621 mmHg 22%
    17:00 +29°C° 0 mm 4 m/S 621 mmHg 24%
    18:00 +29°C° 0 mm 4 m/S 621 mmHg 26%
    19:00 +27°C° 0 mm 3 m/S 620 mmHg 30%
    20:00 +25°C° 0 mm 3 m/S 620 mmHg 35%
    21:00 +23°C° 0 mm 2 m/S 619 mmHg 39%
    22:00 +21°C° 0 mm 2 m/S 619 mmHg 40%
    23:00 +20°C° 0 mm 2 m/S 618 mmHg 41%

    Morgen, 16 Juli, Dienstag

    Zeit Temperatur Niederschläge Wind Luftdruck Luftfeuchtigkeit
    00:00 +20°C° 0 mm 1 m/S 618 mmHg 42%
    01:00 +19°C° 0 mm 1 m/S 618 mmHg 44%
    02:00 +19°C° 0 mm 1 m/S 618 mmHg 45%
    03:00 +16°C° 0 mm 0 m/S 618 mmHg 47%
    04:00 +17°C° 0 mm 0 m/S 618 mmHg 48%
    05:00 +17°C° 0 mm 0 m/S 619 mmHg 49%
    06:00 +18°C° 0 mm 0 m/S 619 mmHg 50%
    07:00 +22°C° 0 mm 1 m/S 620 mmHg 43%
    08:00 +24°C° 0 mm 1 m/S 620 mmHg 36%
    09:00 +26°C° 0 mm 1 m/S 621 mmHg 29%
    10:00 +27°C° 0 mm 2 m/S 621 mmHg 25%
    11:00 +28°C° 0 mm 2 m/S 621 mmHg 22%
    12:00 +30°C° 0 mm 3 m/S 621 mmHg 18%
    13:00 +31°C° 0 mm 3 m/S 621 mmHg 18%
    14:00 +31°C° 0 mm 3 m/S 621 mmHg 17%
    15:00 +33°C° 0 mm 4 m/S 621 mmHg 16%
    16:00 +32°C° 0 mm 4 m/S 621 mmHg 20%
    17:00 +30°C° 0 mm 3 m/S 620 mmHg 24%
    18:00 +29°C° 0 mm 3 m/S 620 mmHg 28%
    19:00 +26°C° 0 mm 3 m/S 620 mmHg 38%
    20:00 +24°C° 0 mm 3 m/S 619 mmHg 48%
    21:00 +21°C° 0 mm 3 m/S 619 mmHg 58%
    22:00 +20°C° 0 mm 3 m/S 619 mmHg 60%
    23:00 +20°C° 0 mm 3 m/S 619 mmHg 62%

    übermorgen, 17 Juli, Mittwoch

    Zeit Temperatur Niederschläge Wind Luftdruck Luftfeuchtigkeit
    00:00 +19°C° 0 mm 3 m/S 619 mmHg 64%
    01:00 +19°C° 0 mm 3 m/S 619 mmHg 65%
    02:00 +18°C° 0 mm 3 m/S 619 mmHg 66%
    03:00 +18°C° 0 mm 3 m/S 619 mmHg 67%
    04:00 +18°C° 0 mm 3 m/S 619 mmHg 66%
    05:00 +18°C° 0 mm 3 m/S 619 mmHg 64%
    06:00 +19°C° 0 mm 3 m/S 619 mmHg 63%
    07:00 +20°C° 0 mm 3 m/S 620 mmHg 56%
    08:00 +22°C° 0 mm 3 m/S 621 mmHg 49%
    09:00 +25°C° 0 mm 3 m/S 621 mmHg 42%
    10:00 +26°C° 0 mm 3 m/S 621 mmHg 39%
    11:00 +27°C° 0 mm 3 m/S 622 mmHg 35%
    12:00 +29°C° 0 mm 3 m/S 622 mmHg 31%
    13:00 +29°C° 0 mm 3 m/S 622 mmHg 30%
    14:00 +30°C° 0 mm 4 m/S 621 mmHg 29%
    15:00 +32°C° 0 mm 4 m/S 621 mmHg 28%
    16:00 +30°C° 0 mm 4 m/S 621 mmHg 30%
    17:00 +29°C° 0 mm 3 m/S 621 mmHg 32%
    18:00 +28°C° 0 mm 3 m/S 621 mmHg 33%
    19:00 +27°C° 0 mm 3 m/S 621 mmHg 37%
    20:00 +25°C° 0 mm 3 m/S 620 mmHg 46%
    21:00 +22°C° 0 mm 3 m/S 620 mmHg 56%
    22:00 +21°C° 0 mm 3 m/S 620 mmHg 59%
    23:00 +20°C° 0 mm 3 m/S 619 mmHg 62%

    18 Juli, Donnerstag

    Zeit Temperatur Niederschläge Wind Luftdruck Luftfeuchtigkeit
    00:00 +19°C° 0 mm 3 m/S 619 mmHg 65%
    01:00 +19°C° 0 mm 2 m/S 619 mmHg 65%
    02:00 +19°C° 0 mm 2 m/S 619 mmHg 66%
    03:00 +18°C° 0 mm 2 m/S 619 mmHg 66%
    04:00 +19°C° 0 mm 2 m/S 619 mmHg 64%
    05:00 +20°C° 0 mm 2 m/S 620 mmHg 62%
    06:00 +21°C° 0 mm 1 m/S 620 mmHg 60%
    07:00 +23°C° 0 mm 1 m/S 621 mmHg 51%
    08:00 +25°C° 0 mm 1 m/S 621 mmHg 43%
    09:00 +27°C° 0 mm 2 m/S 622 mmHg 34%
    10:00 +29°C° 0 mm 2 m/S 622 mmHg 30%
    11:00 +30°C° 0 mm 2 m/S 622 mmHg 25%
    12:00 +33°C° 0 mm 3 m/S 623 mmHg 21%
    13:00 +33°C° 0 mm 4 m/S 622 mmHg 19%
    14:00 +34°C° 0 mm 5 m/S 622 mmHg 17%
    15:00 +35°C° 0 mm 6 m/S 622 mmHg 15%
    16:00 +34°C° 0 mm 5 m/S 622 mmHg 17%
    17:00 +33°C° 0 mm 4 m/S 622 mmHg 18%
    18:00 +31°C° 0 mm 2 m/S 621 mmHg 20%
    19:00 +28°C° 0 mm 3 m/S 621 mmHg 28%
    20:00 +26°C° 0 mm 3 m/S 621 mmHg 37%
    21:00 +22°C° 0 mm 3 m/S 621 mmHg 45%
    22:00 +22°C° 0 mm 3 m/S 620 mmHg 47%
    23:00 +21°C° 0 mm 3 m/S 620 mmHg 49%

    19 Juli, Freitag

    Zeit Temperatur Niederschläge Wind Luftdruck Luftfeuchtigkeit
    00:00 +21°C° 0 mm 2 m/S 620 mmHg 51%
    01:00 +20°C° 0 mm 2 m/S 620 mmHg 52%
    02:00 +20°C° 0 mm 2 m/S 620 mmHg 54%
    03:00 +19°C° 0 mm 2 m/S 620 mmHg 55%
    04:00 +20°C° 0 mm 2 m/S 621 mmHg 54%
    05:00 +20°C° 0 mm 2 m/S 621 mmHg 54%
    06:00 +20°C° 0 mm 2 m/S 621 mmHg 53%
    07:00 +23°C° 0 mm 2 m/S 622 mmHg 48%
    08:00 +25°C° 0 mm 2 m/S 623 mmHg 43%
    09:00 +27°C° 0 mm 3 m/S 623 mmHg 38%
    10:00 +28°C° 0 mm 3 m/S 623 mmHg 34%
    11:00 +29°C° 0 mm 3 m/S 624 mmHg 31%
    12:00 +31°C° 0 mm 3 m/S 624 mmHg 28%
    13:00 +32°C° 0 mm 4 m/S 624 mmHg 28%
    14:00 +32°C° 0 mm 4 m/S 623 mmHg 28%
    15:00 +33°C° 0 mm 4 m/S 623 mmHg 29%
    16:00 +30°C° 0 mm 5 m/S 623 mmHg 33%
    17:00 +29°C° 0 mm 5 m/S 622 mmHg 37%
    18:00 +28°C° 0 mm 5 m/S 622 mmHg 42%
    19:00 +26°C° 0 mm 5 m/S 622 mmHg 47%
    20:00 +23°C° 0 mm 5 m/S 622 mmHg 52%
    21:00 +21°C° 0 mm 5 m/S 622 mmHg 57%
    22:00 +21°C° 0 mm 4 m/S 622 mmHg 59%
    23:00 +20°C° 0 mm 4 m/S 622 mmHg 61%

    20 Juli, Samstag

    Zeit Temperatur Niederschläge Wind Luftdruck Luftfeuchtigkeit
    00:00 +19°C° 0 mm 4 m/S 622 mmHg 63%
    01:00 +19°C° 0 mm 4 m/S 622 mmHg 64%
    02:00 +19°C° 0 mm 3 m/S 623 mmHg 64%
    03:00 +19°C° 0 mm 3 m/S 623 mmHg 64%
    04:00 +19°C° 0 mm 3 m/S 623 mmHg 63%
    05:00 +19°C° 0 mm 3 m/S 623 mmHg 62%
    06:00 +19°C° 0 mm 4 m/S 624 mmHg 61%
    07:00 +21°C° 0 mm 4 m/S 624 mmHg 54%
    08:00 +23°C° 0 mm 4 m/S 625 mmHg 47%
    09:00 +26°C° 0 mm 4 m/S 626 mmHg 40%
    10:00 +28°C° 0 mm 4 m/S 626 mmHg 36%
    11:00 +30°C° 0 mm 5 m/S 627 mmHg 31%
    12:00 +33°C° 0 mm 5 m/S 627 mmHg 27%
    13:00 +33°C° 0 mm 5 m/S 627 mmHg 27%
    14:00 +33°C° 0 mm 5 m/S 626 mmHg 27%
    15:00 +34°C° 0 mm 5 m/S 626 mmHg 27%
    16:00 +32°C° 0 mm 5 m/S 626 mmHg 31%
    17:00 +29°C° 0 mm 5 m/S 625 mmHg 35%
    18:00 +28°C° 0 mm 5 m/S 625 mmHg 39%
    19:00 +26°C° 0 mm 5 m/S 625 mmHg 43%
    20:00 +23°C° 0 mm 5 m/S 625 mmHg 48%
    21:00 +22°C° 0 mm 4 m/S 625 mmHg 52%
    22:00 +21°C° 0 mm 4 m/S 625 mmHg 54%
    23:00 +20°C° 0 mm 4 m/S 625 mmHg 55%
    Mehr zeigen